Location: Heidgraben
(53.7081°N, 9.6576°E)
Time: 08:44:41
(UTC+00:00)

ERS-1 Rocket - Pass Details

Date: 05 July 2020
Orbit: 752 x 758 km, 98.5° (Epoch: 15 August)

Event Time Altitude Azimuth Distance (km) Brightness Sun altitude
Exits shadow 20:56:52 - 172° (S) 2,671 5.3 -7.1°
Reaches altitude 10° 20:57:51 10° 174° (S) 2,286 4.9 -7.2°
Maximum altitude 21:02:52 67° 257° (WSW) 823 3.3 -7.6°
Drops below altitude 10° 21:07:55 10° 340° (NNW) 2,301 7.0 -8.0°
Sets 21:10:15 0° 343° (NNW) 3,230 8.1 -8.2°
